Flight Track Log - Related Links

Times and Time Zones

All times are in EDT time to prevent confusion due to time zone crossing. See the EJA929 flight status page for this flight to view local times or setup timezone preferences in your user account.

Time Position Orientation Groundspeed Altitude Reporting Facility
EDT Latitude Longitude Course Direction KTS MPH feet Rate Location/Type
Fri 02:51:25 PM 37.7333 -122.2667 288° West 203 234 1,700  Level Northern Cal TRACON
Fri 02:52:25 PM 37.7500 -122.3333 288° West 221 254 5,800 3,500 Climbing Northern Cal TRACON
Fri 02:53:25 PM 37.7667 -122.4167 284° West 270 311 8,700 2,235 Climbing Northern Cal TRACON
Fri 02:55:41 PM 37.5908 -122.4758 195° South 345 397 13,100 1,879 Climbing Oakland Center
Fri 02:56:43 PM 37.5081 -122.3989 144° Southeast 377 434 14,900 1,790 Climbing Oakland Center
Fri 02:57:45 PM 37.4281 -122.3103 139° Southeast 382 440 16,800 1,902 Climbing Oakland Center
Fri 02:58:46 PM 37.3456 -122.2197 139° Southeast 389 448 18,800 1,951 Climbing Oakland Center
Fri 02:59:48 PM 37.2617 -122.1281 139° Southeast 397 457 20,800 2,098 Climbing Oakland Center
Fri 03:00:49 PM 37.1572 -122.0158 139° Southeast 409 471 23,100 2,000 Climbing Oakland Center
Fri 03:01:51 PM 37.0669 -121.9172 139° Southeast 423 487 24,900 1,756 Climbing Oakland Center
Fri 03:02:52 PM 36.9731 -121.8156 139° Southeast 439 505 26,700 1,659 Climbing Oakland Center
Fri 03:03:54 PM 36.8739 -121.7181 142° Southeast 452 520 28,300 1,113 Climbing Oakland Center
Fri 03:04:56 PM 36.7692 -121.6064 139° Southeast 481 554 29,000 341 Climbing Oakland Center
Fri 03:05:57 PM 36.6639 -121.4931 139° Southeast 499 574 29,000  Level Oakland Center
Fri 03:06:59 PM 36.5567 -121.3789 139° Southeast 507 583 29,000  Level Oakland Center
Fri 03:08:00 PM 36.4500 -121.2658 140° Southeast 505 581 29,000  Level Oakland Center
Fri 03:09:02 PM 36.3481 -121.1569 139° Southeast 486 559 29,000  Level Oakland Center
Fri 03:10:03 PM 36.2308 -121.0347 140° Southeast 462 532 29,000  Level Oakland Center
Fri 03:11:05 PM 36.1350 -120.9344 140° Southeast 453 521 29,000  Level Oakland Center
Fri 03:12:06 PM 36.0403 -120.8342 139° Southeast 450 518 29,000  Level Oakland Center
Fri 03:13:08 PM 35.9444 -120.7342 140° Southeast 450 518 29,000  Level Oakland Center
Fri 03:14:10 PM 35.8497 -120.6378 140° Southeast 445 512 29,000  Level Oakland Center
Fri 03:15:11 PM 35.7544 -120.5400 140° Southeast 446 513 29,000  Level Oakland Center
Fri 03:16:12 PM 35.6542 -120.4367 140° Southeast 465 535 29,000 -72 Level Oakland Center
Fri 03:16:34 PM 35.6103 -120.3947 142° Southeast 470 541 28,900 -918 Descending Los Angeles Center
Fri 03:17:37 PM 35.5044 -120.2858 140° Southeast 495 570 27,700 -1,152 Descending Los Angeles Center
Fri 03:18:39 PM 35.3964 -120.1725 139° Southeast 508 585 26,500 -1,210 Descending Los Angeles Center
Fri 03:19:41 PM 35.2844 -120.0592 140° Southeast 500 575 25,200 -1,161 Descending Los Angeles Center
Fri 03:20:43 PM 35.1792 -119.9533 141° Southeast 491 565 24,100 -581 Descending Los Angeles Center
Fri 03:21:45 PM 35.0597 -119.8208 138° Southeast 484 557 24,000 -48 Descending Los Angeles Center
Fri 03:22:47 PM 34.9694 -119.6978 132° Southeast 487 560 24,000  Level Los Angeles Center
Fri 03:23:49 PM 34.8789 -119.5761 132° Southeast 484 557 24,000 -1,016 Level Los Angeles Center
Fri 03:24:51 PM 34.7903 -119.4553 132° Southeast 480 552 21,900 -2,613 Descending Los Angeles Center
Fri 03:25:53 PM 34.7047 -119.3406 132° Southeast 462 532 18,600 -3,242 Descending Los Angeles Center
Fri 03:26:55 PM 34.6133 -119.2208 133° Southeast 437 503 15,200 -3,048 Descending Los Angeles Center
Fri 03:27:57 PM 34.5422 -119.1258 132° Southeast 385 443 12,300 -2,032 Descending Los Angeles Center
Fri 03:28:59 PM 34.4781 -119.0428 133° Southeast 324 373 11,000 -677 Descending Los Angeles Center
Fri 03:30:01 PM 34.4236 -118.9697 132° Southeast 292 336 10,900 -968 Descending Los Angeles Center
Fri 03:31:03 PM 34.3675 -118.8953 132° Southeast 297 342 9,000 -1,887 Descending Los Angeles Center
Fri 03:32:05 PM 34.3256 -118.7919 116° Southeast 286 329 7,000 -968 Descending Los Angeles Center
Fri 03:33:07 PM 34.2975 -118.7072 112° Southeast 273 314 7,000  Level Los Angeles Center
Fri 03:34:09 PM 34.2667 -118.6158 112° Southeast 287 330 7,000 -194 Level Los Angeles Center
Fri 03:35:11 PM 34.2356 -118.5267 113° Southeast 289 333 6,600 -774 Descending Los Angeles Center
Fri 03:36:13 PM 34.2069 -118.4378 111° Southeast 284 327 5,400 -774 Descending Los Angeles Center
Fri 03:37:15 PM 34.1781 -118.3567 113° Southeast 274 315 5,000 -726 Descending Los Angeles Center
Fri 03:38:17 PM 34.1172 -118.3308 161° South 235 270 3,900 -1,152 Descending Los Angeles Center
Fri 03:39:20 PM 34.0797 -118.3767 225° Southwest 206 237 2,600 -1,296 Descending Los Angeles Center
Fri 03:40:22 PM 34.0450 -118.4175 224° Southwest 185 213 1,200 -1,161 Descending Los Angeles Center
Fri 03:41:24 PM 34.0208 -118.4453 224° Southwest 145 167 200 -968 Descending Los Angeles Center
Fri 03:43:00 PM 34.0158 -118.4513 225° Southwest  Level Estimated

Login

Don't have an account? Register now (free) for customized features, flight alerts, and more!